This is the latest recevied weather packets stored in our database for station/object W9WRP. If no packets are shown the sender has not sent any weather packets the latest 10 day(s).
| Time | Temp. | Humidity | Pressure | Rain* | Wind** | Luminosity | Snow |
|---|---|---|---|---|---|---|---|
| 1787832387 | 30° C | 25% | 1014 hPa | 0 mm | - | 0 W/m² | - |
| 1787832082 | 30° C | 24% | 1013.8 hPa | 0 mm | - | 0 W/m² | - |
| 1787831780 | 30.56° C | 24% | 1013.6 hPa | 0 mm | - | 0 W/m² | - |
| 1787831480 | 30.56° C | 24% | 1013.6 hPa | 0 mm | - | 0 W/m² | - |
| 1787831178 | 31.11° C | 23% | 1013.6 hPa | 0 mm | - | 0 W/m² | - |
| 1787830876 | 31.11° C | 23% | 1013.5 hPa | 0 mm | - | 0 W/m² | - |
| 1787830575 | 31.11° C | 23% | 1013.7 hPa | 0 mm | - | 0 W/m² | - |
| 1787830274 | 31.11° C | 24% | 1013.8 hPa | 0 mm | - | 0 W/m² | - |
| 1787829975 | 31.11° C | 23% | 1013.5 hPa | 0 mm | - | 0 W/m² | - |
| 1787829675 | 31.67° C | 23% | 1013.6 hPa | 0 mm | - | 0 W/m² | - |
| 1787829370 | 32.22° C | 23% | 1013.5 hPa | 0 mm | - | 0 W/m² | - |
| 1787829066 | 32.78° C | 23% | 1013.6 hPa | 0 mm | - | 0 W/m² | - |
| 1787828761 | 33.33° C | 23% | 1013.7 hPa | 0 mm | - | 0 W/m² | - |
| 1787828458 | 33.33° C | 22% | 1013.2 hPa | 0 mm | - | 0 W/m² | - |
| 1787828156 | 33.33° C | 22% | 1013.5 hPa | 0 mm | - | 0 W/m² | - |
| 1787827855 | 33.33° C | 22% | 1013.5 hPa | 0 mm | - | 0 W/m² | - |
| 1787827551 | 33.33° C | 21% | 1013.5 hPa | 0 mm | - | 0 W/m² | - |
| 1787827251 | 32.78° C | 22% | 1013.5 hPa | 0 mm | - | 0 W/m² | - |
| 1787826949 | 31.67° C | 23% | 1013.4 hPa | 0 mm | - | 0 W/m² | - |
| 1787826644 | 31.67° C | 23% | 1013.4 hPa | 0 mm | - | 0 W/m² | - |
| 1787826341 | 31.67° C | 22% | 1013.4 hPa | 0 mm | - | 0 W/m² | - |
| 1787826037 | 31.67° C | 22% | 1013.3 hPa | 0 mm | - | 0 W/m² | - |
| 1787825735 | 32.22° C | 22% | 1013.3 hPa | 0 mm | - | 0 W/m² | - |
| 1787825434 | 32.78° C | 22% | 1013.4 hPa | 0 mm | - | 0 W/m² | - |
| 1787825133 | 32.78° C | 22% | 1013.3 hPa | 0 mm | - | 0 W/m² | - |
* Rain latest hour (hover to see other rain measurements)
** Current wind speed in m/s (hover to see current wind gust speed)